Regional Weather Roundup
Issued by NWS

Home | Current Version | Previous Version | Text Only | Print | Product List | Glossary Off
Versions: 1 2 3 4 5 6 7 8 9 10 11 12 13 14 15 16 17 18 19 20 21 22 23 24 25 26 27 28 29 30 31 32 33 34 35 36 37 38 39 40 41 42 43 44 45 46 47 48 49 50

000
ASUS45 KPSR 232210
RWRAZ

ARIZONA HOURLY REGIONAL WEATHER ROUNDUP
NATIONAL WEATHER SERVICE PHOENIX AZ
300 PM MST SUN APR 23 2017

NOTE: FAIR INDICATES FEW OR NO CLOUDS BELOW 12,000 FEET WITH NO
SIGNIFICANT WEATHER AND/OR OBSTRUCTIONS TO VISIBILITY.

AZZ001>003-036-232300-
NORTHWEST ARIZONA

CITY           SKY/WX    TMP DP  RH WIND       PRES   REMARKS
BULLHEAD CITY  SUNNY     97  19   6 S23G32    29.62F
KINGMAN        SUNNY     85  19   9 SW33G45   29.79F
$$

AZZ004>008-015-016-018-232300-
NORTH CENTRAL ARIZONA

CITY           SKY/WX    TMP DP  RH WIND       PRES   REMARKS
GRAND CANYON   PTSUNNY   72  22  15 SW24G36   29.96F
WILLIAMS       PTSUNNY   68  21  17 SW23G40   29.99F
PRESCOTT       PTSUNNY   76  23  14 SW16G33   29.92F
FLAGSTAFF      PTSUNNY   66  19  16 SW25G37   29.99F
PAYSON         MOSUNNY   77  27  15 SW13G23   29.99F
PAGE           PTSUNNY   78  24  13 NE5       29.77F
$$

AZZ009>014-017-232300-
NORTHEAST ARIZONA

CITY           SKY/WX    TMP DP  RH WIND       PRES   REMARKS
WINSLOW        CLOUDY    80  20  10 SW26G33   29.89F
SAINT JOHNS    SUNNY     81  10   7 W22G31    29.94F
WINDOW ROCK    SUNNY     74  20  13 SW20G35   29.98F
SHOW LOW       SUNNY     72  14  11 SW30G37   30.02F
$$

AZZ540-542>544-546-548-232300-
GREATER PHOENIX AREA

CITY           SKY/WX    TMP DP  RH WIND       PRES   REMARKS
PHOENIX        PTSUNNY   97  20   6 S10       29.69F
BUCKEYE        PTSUNNY   95  27   8 S9        29.70F
GLENDALE       PTSUNNY   99  19   6 SW12      29.72F
LUKE AFB       PTSUNNY   96  23   7 SW17G23   29.69F
DEER VALLEY    PTSUNNY   94  22   7 SW13      29.72F
SCOTTSDALE     MOSUNNY   96  21   6 SW9       29.74F
MESA-FALCON    PTSUNNY  N/A N/A N/A S14G23    29.73F
MESA-GATEWAY   MOSUNNY   95  28   9 VRB6      29.73F
CHANDLER       SUNNY     99  21   6 S6        29.71F
$$

AZZ539-553-232300-
SOUTHWEST MARICOPA COUNTY AND PINAL COUNTY

CITY           SKY/WX    TMP DP  RH WIND       PRES   REMARKS
CASA GRANDE    SUNNY     95  24   8 W6        29.73F
GILA BEND      FAIR     100  18   5 SW14G22   29.67F
$$

AZZ503-504-507>509-232300-
SOUTHEAST ARIZONA

CITY           SKY/WX    TMP DP  RH WIND       PRES   REMARKS
TUCSON         SUNNY     96  13   5 SW8G24    29.82F
DAVIS-MONTHAN  SUNNY     95  14   5 NW6       29.81F
RYAN FIELD     SUNNY     97  16   5 SW17G25   29.80F
NOGALES        SUNNY     91  10   5 SW21G29   29.92F
SIERRA VISTA   SUNNY     89   5   4 SW14G23   29.97S
DOUGLAS        SUNNY     92  13   5 MISG      29.90F
SAFFORD        SUNNY     87  31  13 SE8       29.87F
$$

AZZ532-232300-
SOUTHWEST ARIZONA

CITY           SKY/WX    TMP DP  RH WIND       PRES   REMARKS
YUMA           CLOUDY    98  36  11 W12       29.69F
$$

CAZ041-043-047-048-061-525>527-560>570-232300-
SOUTHERN CALIFORNIA

CITY           SKY/WX    TMP DP  RH WIND       PRES   REMARKS
DOWNTOWN L.A.  SUNNY     72  55  55 W7        29.84F
L.A. AIRPORT   MOSUNNY   68  54  60 W18       29.86F
SAN DIEGO      MOSUNNY   67  54  63 SW10      29.90S
BURBANK        SUNNY     77  49  37 S10       29.83F
ONTARIO        MOSUNNY   82  43  25 SW14G21   29.83F
RIVERSIDE      SUNNY     83  49  30 W14G25    29.81F
PALM SPRINGS   SUNNY     99  21   6 NW14G28   29.69F
EL CENTRO NAS  LGT RAIN  98  36  11 W26G35    29.70F
IMPERIAL       SUNNY     97  44  16 W21G31    29.67F
BLYTHE         SUNNY     99  18   5 SW21G28   29.68F
NEEDLES        SUNNY     98  16   5 SW17G28   29.67F
$$

NVZ020-UTZ003-232300-
SOUTHERN NEVADA-UTAH

CITY           SKY/WX    TMP DP  RH WIND       PRES   REMARKS
LAS VEGAS      PTSUNNY   88  15   6 SW20G33   29.67F
SALT LAKE CITY CLOUDY    66  33  29 NW15      29.77S
$$

NMZ009-TXZ055-232300-
NEW MEXICO-WEST TEXAS

CITY           SKY/WX    TMP DP  RH WIND       PRES   REMARKS
ALBUQUERQUE    MOSUNNY   75  30  19 S14G26    29.97F
EL PASO        MOSUNNY   79  27  14 SE7G22    29.98F
$$


........................KEY........................
SKY/WX - SKY CONDITION/WEATHER
TMP    - TEMPERATURE IN FAHRENHEIT
DP     - DEW POINT IN FAHRENHEIT
RH     - RELATIVE HUMIDITY IN PERCENT
WIND   - DIRECTION AND SPEED IN MILES PER HOUR (MPH)
VRB    - VARIABLE WIND DIRECTION
PRES   - MEAN SEA LEVEL PRESSURE IN INCHES OF MERCURY
         F - FALLING PRESSURE   R - RISING PRESSURE
         S - STEADY PRESSURE
VSB    - VISIBILITY IN MILES
HX     - HEAT INDEX IN FAHRENHEIT
WCI    - WIND CHILL INDEX IN FAHRENHEIT
TC     - TEMPERATURE IN CELSIUS WHICH IS ALSO KNOWN AS
         TEMPERATURE IN CENTIGRADE
AFB    - AIR FORCE BASE
         LUKE AFB IS LUKE AIR FORCE BASE
         DAVIS-MONTHAN IS DAVIS-MONTHAN AIR FORCE BASE
NAS    - NAVAL AIR STATION
         EL CENTRO NAS IS EL CENTRO NAVAL AIR STATION
N/A    - NOT AVAILABLE




USA.gov is the U.S. government's official web portal to all federal, state and local government web resources and services.